Terminal Aerodrome Forecast
Issued by NWS

Home | Current Version | Previous Version | Text Only | Print | Product List | Glossary On
Versions: 1 2 3 4 5 6 7 8 9 10 11 12 13 14 15 16 17 18 19 20 21 22 23 24 25 26 27
000
FTUS42 KJAX 281142
TAFVQQ
TAF
KVQQ 281142Z 2812/0112 01008KT P6SM -RA SCT015 OVC025 WS015/05035KT
     FM281500 02012G20KT 5SM -RA BR SCT007 BKN012 OVC020
      TEMPO 2815/2819 3SM RA BR BKN007 OVC012
     FM010000 01007KT 5SM -RA BR SCT003 BKN006 OVC010
     FM010600 04007KT 4SM -DZ BR OVC003=

USA.gov is the U.S. government's official web portal to all federal, state and local government web resources and services.